Total_Precipitation_Accumulation
0.00 0.00 0.00 0.00 0.00 0.00 0.00 0.01 0.02 0.05 0.05 0.07 0.09 0.08 0.09 0.15 0.29 0.70 0.39 0.13 0.06 0.02 0.00 0.01 0.01 0.01 0.04 0.06 0.09 0.09 0.09 0.10 0.11 0.12 0.12 0.10 0.08 0.07 0.06 0.06 0.09 0.13 0.15 0.13 0.09 0.07 0.06 0.06 0.04
0.00 0.00 0.00 0.00 0.00 0.00 0.00 0.01 0.03 0.04 0.04 0.06 0.12 0.11 0.09 0.12 0.15 0.10 0.07 0.06 0.04 0.02 0.01 0.00 0.01 0.02 0.03 0.04 0.06 0.10 0.10 0.09 0.09 0.09 0.09 0.08 0.07 0.07 0.06 0.07 0.09 0.11 0.10 0.06 0.04 0.03 0.02 0.02 0.02
0.00 0.00 0.00 0.00 0.00 0.00 0.01 0.02 0.03 0.03 0.03 0.06 0.18 0.27 0.23 0.15 0.17 0.09 0.06 0.05 0.04 0.02 0.01 0.02 0.01 0.03 0.05 0.04 0.04 0.08 0.10 0.10 0.09 0.09 0.09 0.10 0.09 0.08 0.07 0.08 0.09 0.09 0.08 0.09 0.08 0.06 0.02 0.02 0.02
0.00 0.00 0.00 0.00 0.00 0.00 0.01 0.03 0.03 0.02 0.03 0.04 0.14 0.33 0.25 0.13 0.12 0.08 0.05 0.05 0.04 0.02 0.01 0.01 0.02 0.03 0.06 0.06 0.05 0.06 0.08 0.11 0.12 0.12 0.12 0.11 0.11 0.09 0.07 0.08 0.09 0.09 0.10 0.12 0.14 0.09 0.03 0.02 0.02
0.00 0.00 0.00 0.00 0.00 0.00 0.00 0.02 0.05 0.03 0.02 0.02 0.08 0.24 0.27 0.13 0.12 0.14 0.09 0.07 0.05 0.03 0.02 0.01 0.04 0.05 0.06 0.07 0.08 0.09 0.07 0.10 0.13 0.14 0.12 0.10 0.10 0.09 0.09 0.09 0.08 0.10 0.13 0.15 0.12 0.06 0.02 0.01 0.02
0.00 0.00 0.00 0.00 0.00 0.00 0.00 0.01 0.03 0.04 0.03 0.04 0.07 0.20 0.32 0.24 0.22 0.21 0.18 0.12 0.10 0.07 0.04 0.03 0.06 0.06 0.08 0.10 0.11 0.13 0.13 0.12 0.14 0.14 0.11 0.10 0.08 0.08 0.10 0.10 0.10 0.12 0.17 0.15 0.07 0.02 0.01 0.01 0.02
0.00 0.00 0.00 0.00 0.01 0.01 0.01 0.02 0.03 0.06 0.05 0.05 0.11 0.28 0.36 0.38 0.34 0.32 0.27 0.22 0.12 0.10 0.10 0.07 0.05 0.06 0.08 0.12 0.11 0.13 0.15 0.15 0.13 0.12 0.12 0.13 0.13 0.13 0.14 0.12 0.12 0.14 0.16 0.11 0.03 0.01 0.01 0.01 0.02
0.00 0.00 0.00 0.00 0.01 0.01 0.02 0.03 0.05 0.10 0.11 0.06 0.13 0.37 0.53 0.55 0.45 0.38 0.29 0.26 0.16 0.17 0.20 0.13 0.08 0.07 0.05 0.04 0.08 0.10 0.14 0.17 0.13 0.09 0.11 0.13 0.12 0.11 0.11 0.09 0.10 0.11 0.11 0.07 0.04 0.02 0.01 0.01 0.01
0.00 0.00 0.00 0.00 0.00 0.01 0.03 0.04 0.06 0.09 0.12 0.08 0.09 0.22 0.46 0.44 0.44 0.47 0.38 0.31 0.22 0.24 0.32 0.15 0.08 0.08 0.08 0.04 0.04 0.07 0.10 0.12 0.09 0.06 0.07 0.07 0.16 0.21 0.17 0.11 0.10 0.09 0.08 0.06 0.04 0.03 0.01 0.01 0.01
0.00 0.00 0.00 0.00 0.00 0.01 0.02 0.04 0.05 0.05 0.07 0.10 0.14 0.19 0.29 0.38 0.40 0.39 0.40 0.35 0.31 0.26 0.32 0.21 0.11 0.08 0.10 0.05 0.04 0.04 0.03 0.04 0.05 0.10 0.07 0.13 0.30 0.37 0.27 0.22 0.14 0.10 0.09 0.06 0.05 0.04 0.03 0.02 0.01
0.00 0.00 0.00 0.00 0.00 0.00 0.00 0.02 0.03 0.04 0.06 0.08 0.13 0.26 0.33 0.36 0.44 0.38 0.46 0.47 0.44 0.32 0.27 0.27 0.22 0.17 0.23 0.10 0.08 0.08 0.09 0.13 0.14 0.20 0.18 0.25 0.35 0.30 0.33 0.37 0.22 0.15 0.11 0.10 0.09 0.04 0.04 0.03 0.04
0.00 0.00 0.00 0.00 0.00 0.00 0.00 0.00 0.01 0.02 0.03 0.07 0.11 0.26 0.43 0.34 0.42 0.40 0.46 0.52 0.54 0.46 0.37 0.40 0.41 0.30 0.25 0.21 0.20 0.16 0.12 0.14 0.17 0.26 0.20 0.32 0.40 0.41 0.41 0.43 0.32 0.29 0.25 0.23 0.16 0.10 0.09 0.07 0.06
0.00 0.00 0.00 0.00 0.00 0.00 0.00 0.00 0.00 0.01 0.02 0.05 0.08 0.18 0.29 0.28 0.30 0.39 0.53 0.52 0.55 0.58 0.63 0.56 0.50 0.42 0.38 0.39 0.36 0.27 0.21 0.17 0.19 0.27 0.27 0.28 0.33 0.38 0.46 0.43 0.40 0.35 0.36 0.34 0.24 0.22 0.21 0.14 0.16
0.00 0.00 0.00 0.00 0.00 0.00 0.00 0.00 0.00 0.00 0.01 0.02 0.04 0.10 0.13 0.18 0.20 0.30 0.49 0.55 0.53 0.55 0.66 0.75 0.71 0.66 0.61 0.57 0.48 0.39 0.33 0.36 0.35 0.35 0.37 0.33 0.39 0.53 0.59 0.57 0.57 0.54 0.55 0.60 0.49 0.42 0.41 0.30 0.28
0.00 0.00 0.00 0.00 0.00 0.00 0.00 0.00 0.00 0.00 0.00 0.01 0.01 0.05 0.09 0.13 0.24 0.35 0.47 0.55 0.62 0.70 0.78 0.92 0.96 0.94 0.90 0.86 0.78 0.64 0.55 0.51 0.53 0.61 0.65 0.52 0.55 0.71 0.72 0.78 0.80 0.76 0.75 0.81 0.82 0.72 0.65 0.57 0.49
0.00 0.00 0.00 0.00 0.00 0.00 0.00 0.00 0.01 0.01 0.01 0.02 0.02 0.04 0.10 0.15 0.24 0.40 0.46 0.54 0.61 0.69 0.80 0.81 0.95 0.99 1.06 1.15 1.15 0.90 0.84 0.81 0.79 0.77 0.81 0.72 0.73 0.84 0.94 0.97 0.98 0.95 0.92 1.00 1.05 1.00 0.84 0.75 0.67
0.00 0.00 0.00 0.00 0.00 0.00 0.00 0.01 0.03 0.02 0.02 0.02 0.02 0.03 0.09 0.18 0.24 0.32 0.42 0.53 0.58 0.61 0.81 0.93 1.04 1.17 1.13 1.19 1.31 1.24 1.21 1.18 1.13 1.15 1.13 1.19 1.19 1.15 1.21 1.28 1.31 1.26 1.26 1.25 1.17 1.14 0.99 0.95 0.91
0.00 0.00 0.00 0.00 0.00 0.00 0.00 0.02 0.04 0.04 0.03 0.05 0.07 0.07 0.10 0.21 0.28 0.33 0.45 0.59 0.64 0.73 0.89 1.02 1.17 1.38 1.55 1.52 1.60 1.53 1.65 1.78 1.80 1.84 1.79 1.68 1.69 1.73 1.76 1.70 1.66 1.63 1.63 1.51 1.43 1.38 1.20 1.08 1.01
0.00 0.00 0.00 0.00 0.00 0.01 0.02 0.05 0.08 0.14 0.15 0.16 0.16 0.14 0.18 0.25 0.31 0.45 0.64 0.85 1.07 1.16 1.19 1.23 1.24 1.37 1.56 1.83 2.06 2.19 2.24 2.41 2.50 2.54 2.66 2.65 2.58 2.64 2.62 2.51 2.34 2.15 2.01 1.83 1.67 1.46 1.27 1.13 1.05
0.00 0.00 0.01 0.01 0.02 0.02 0.04 0.09 0.15 0.16 0.16 0.23 0.25 0.22 0.25 0.33 0.47 0.74 0.95 1.28 1.42 1.44 1.41 1.47 1.51 1.66 1.88 2.20 2.57 2.95 3.06 3.18 3.22 3.21 3.37 3.47 3.44 3.49 3.53 3.39 3.14 2.90 2.54 2.10 1.74 1.52 1.37 1.21 1.15
0.00 0.00 0.01 0.01 0.03 0.04 0.07 0.17 0.25 0.27 0.25 0.25 0.31 0.39 0.44 0.56 0.79 1.00 1.18 1.32 1.49 1.59 1.64 1.68 1.89 2.22 2.61 3.01 3.41 3.77 4.03 4.07 4.02 3.78 3.74 3.84 3.89 3.91 3.98 3.90 3.56 3.07 2.51 2.02 1.76 1.64 1.49 1.35 1.23
0.00 0.00 0.00 0.01 0.03 0.06 0.08 0.23 0.37 0.41 0.39 0.34 0.39 0.44 0.45 0.60 0.81 0.96 1.15 1.36 1.48 1.61 1.76 1.86 2.12 2.57 3.00 3.42 3.95 4.38 4.61 4.79 4.89 4.68 4.37 4.14 3.97 3.86 3.73 3.53 3.09 2.61 2.20 1.90 1.75 1.61 1.40 1.30 1.15
0.00 0.00 0.00 0.00 0.02 0.06 0.07 0.20 0.51 0.56 0.59 0.55 0.48 0.44 0.40 0.43 0.57 0.75 0.91 1.23 1.48 1.56 1.59 1.69 2.07 2.62 3.30 3.95 4.41 4.82 5.09 5.16 5.11 4.75 4.38 3.98 3.62 3.20 2.85 2.56 2.28 2.09 1.86 1.60 1.40 1.24 1.07 0.92 0.80
0.00 0.00 0.00 0.01 0.02 0.06 0.06 0.15 0.52 0.77 0.89 0.89 0.63 0.44 0.36 0.35 0.41 0.50 0.64 0.89 1.21 1.30 1.46 1.69 2.02 2.68 3.41 3.95 4.39 4.71 4.94 4.89 4.60 4.18 3.69 3.40 3.06 2.62 2.23 2.00 1.77 1.60 1.37 1.13 0.96 0.85 0.74 0.64 0.59
0.00 0.01 0.05 0.09 0.08 0.09 0.10 0.24 0.63 0.86 0.80 0.72 0.57 0.46 0.40 0.34 0.36 0.42 0.50 0.68 0.93 1.12 1.41 1.77 2.16 2.66 3.11 3.59 3.96 4.12 4.25 4.24 4.14 3.88 3.49 3.16 2.78 2.36 1.94 1.60 1.40 1.18 0.97 0.81 0.69 0.60 0.52 0.46 0.39
0.00 0.01 0.09 0.16 0.16 0.17 0.24 0.47 0.81 0.77 0.61 0.58 0.54 0.44 0.42 0.43 0.45 0.53 0.64 0.78 0.91 1.03 1.23 1.57 1.92 2.33 2.57 2.78 3.07 3.23 3.36 3.36 3.22 3.04 2.78 2.43 2.08 1.82 1.52 1.16 0.88 0.68 0.54 0.47 0.44 0.43 0.40 0.34 0.30
0.01 0.01 0.02 0.05 0.08 0.20 0.45 0.71 1.00 1.01 0.67 0.54 0.53 0.43 0.40 0.39 0.41 0.53 0.65 0.75 0.82 0.90 1.07 1.25 1.42 1.68 1.95 2.16 2.29 2.37 2.41 2.31 2.20 2.03 1.81 1.63 1.43 1.20 0.94 0.73 0.59 0.48 0.40 0.33 0.29 0.29 0.27 0.24 0.23
0.01 0.02 0.02 0.04 0.12 0.27 0.49 0.81 1.17 1.29 0.96 0.78 0.60 0.50 0.45 0.40 0.43 0.51 0.57 0.63 0.66 0.69 0.83 0.96 1.09 1.22 1.40 1.52 1.55 1.50 1.49 1.47 1.34 1.21 1.11 0.96 0.80 0.67 0.56 0.48 0.41 0.37 0.33 0.29 0.26 0.23 0.20 0.18 0.17
0.03 0.03 0.03 0.05 0.08 0.27 0.55 0.99 1.29 1.50 1.42 1.12 0.79 0.61 0.52 0.53 0.50 0.49 0.50 0.51 0.49 0.50 0.59 0.69 0.75 0.89 1.00 1.04 1.03 0.95 0.89 0.84 0.78 0.71 0.68 0.58 0.49 0.44 0.39 0.35 0.32 0.29 0.26 0.23 0.22 0.21 0.19 0.19 0.20
0.03 0.03 0.05 0.11 0.14 0.20 0.49 1.25 1.62 1.80 1.70 1.36 0.94 0.74 0.65 0.59 0.54 0.47 0.44 0.40 0.39 0.42 0.46 0.51 0.57 0.61 0.64 0.61 0.57 0.56 0.53 0.52 0.51 0.48 0.45 0.43 0.40 0.36 0.33 0.30 0.28 0.26 0.24 0.23 0.23 0.22 0.21 0.21 0.21